Location: Marstown
(39.5056°N, 77.0820°W)
Time: 00:52:50
(UTC-04:00)

Envisat - Visible Passes

Search period start: 23 July 2017 00:00
Search period end: 02 August 2017 00:00
Orbit: 764 x 766 km, 98.2° (Epoch: 22 July)

Date Brightness Start Highest point End Pass type
(mag) Time Alt. Az. Time Alt. Az. Time Alt. Az.
23 Jul 3.9 21:29:51 10° S 21:34:45 50° W 21:39:42 10° NNW visible
24 Jul 3.0 20:53:00 10° SSE 20:58:02 72° ENE 21:03:07 10° N visible
24 Jul 5.7 22:35:37 10° WSW 22:37:33 12° W 22:39:30 10° WNW visible
25 Jul 4.8 21:56:11 10° SSW 22:00:30 28° W 22:04:51 10° NW visible
26 Jul 3.4 21:18:38 10° S 21:23:39 64° W 21:28:42 10° NNW visible
27 Jul 5.5 22:23:20 10° SW 22:26:21 16° W 22:29:22 10° NW visible
28 Jul 4.4 21:44:44 10° SSW 21:49:21 35° W 21:54:01 10° NNW visible
29 Jul 3.1 21:07:29 10° S 21:12:33 81° WSW 21:17:39 10° NNW visible
30 Jul 5.3 22:11:28 10° SW 22:15:09 20° W 22:18:52 10° NW visible
31 Jul 4.0 21:33:23 10° S 21:38:12 45° W 21:43:06 10° NNW visible
01 Aug 3.0 20:56:25 10° SSE 21:01:28 80° ENE 21:06:34 10° N visible
01 Aug 5.8 22:39:52 10° WSW 22:41:03 11° W 22:42:14 10° WNW visible
